Location: B?jaj?g
(11.7167°N, 92.6667°E)
Time: 22:42:23
(UTC+00:00)

NOSS 3-4 (A) - Pass Details

Date: 18 September 2020
Orbit: 885 x 1327 km, 63.4° (Epoch: 30 October)

Event Time Altitude Azimuth Distance (km) Brightness Sun altitude
Rises 13:19:27 0° 199° (SSW) 3,564 6.6 -23.2°
Reaches altitude 10° 13:22:01 10° 196° (SSW) 2,586 5.8 -23.8°
Maximum altitude 13:27:55 71° 113° (ESE) 932 3.1 -25.2°
Enters shadow 13:28:51 60° 60° (ENE) 1,005 3.3 -25.4°
